This is the latest recevied weather packets stored in our database for station/object YB3RDW-13. If no packets are shown the sender has not sent any weather packets the latest 1 day(s).
| Time | Temp. | Humidity | Pressure | Rain* | Wind** | Luminosity | Snow |
|---|---|---|---|---|---|---|---|
| 1778029624 | 29.44° C | 82% | 1013 hPa | 0 mm | 0.45 m/s, 152° | 333 W/m² | - |
| 1778029318 | 29.44° C | 83% | 1013 hPa | 0 mm | 0.45 m/s, 151° | 285 W/m² | - |
| 1778029018 | 29.44° C | 84% | 1013 hPa | 0 mm | 0.89 m/s, 127° | 279 W/m² | - |
| 1778028718 | 29.44° C | 83% | 1013 hPa | 0 mm | 0.45 m/s, 150° | 269 W/m² | - |
| 1778028417 | 28.89° C | 83% | 1013 hPa | 0 mm | 0 m/s | 256 W/m² | - |
| 1778028117 | 28.89° C | 84% | 1013 hPa | 0 mm | 0.45 m/s, 150° | 246 W/m² | - |
| 1778027817 | 28.89° C | 85% | 1013 hPa | 0 mm | 0.45 m/s, 170° | 236 W/m² | - |
| 1778027517 | 28.33° C | 87% | 1013 hPa | 0 mm | 0 m/s | 226 W/m² | - |
| 1778027217 | 28.33° C | 87% | 1013 hPa | 0 mm | 0.45 m/s, 159° | 210 W/m² | - |
| 1778026918 | 27.78° C | 89% | 1013 hPa | 0 mm | 0 m/s | 196 W/m² | - |
| 1778026617 | 27.78° C | 89% | 1013 hPa | 0 mm | 0.45 m/s, 144° | 183 W/m² | - |
| 1778026318 | 27.22° C | 90% | 1012 hPa | 0 mm | 0.45 m/s, 123° | 173 W/m² | - |
| 1778026017 | 27.22° C | 90% | 1012 hPa | 0 mm | 0.89 m/s, 86° | 162 W/m² | - |
| 1778025718 | 27.22° C | 91% | 1012 hPa | 0 mm | 0.45 m/s, 167° | 143 W/m² | - |
| 1778025418 | 26.67° C | 91% | 1012 hPa | 0 mm | 0.45 m/s, 159° | 129 W/m² | - |
| 1778025118 | 26.67° C | 91% | 1012 hPa | 0 mm | 0.89 m/s, 114° | 114 W/m² | - |
| 1778024818 | 26.67° C | 92% | 1012 hPa | 0 mm | 0.45 m/s, 152° | 123 W/m² | - |
| 1778024517 | 26.67° C | 93% | 1012 hPa | 0 mm | 0 m/s | 94 W/m² | - |
| 1778024218 | 26.11° C | 93% | 1012 hPa | 0 mm | 0.89 m/s, 135° | 73 W/m² | - |
| 1778023917 | 26.11° C | 94% | 1012 hPa | 0 mm | 0.89 m/s, 130° | 74 W/m² | - |
| 1778023617 | 26.11° C | 95% | 1012 hPa | 0 mm | 0 m/s | 69 W/m² | - |
| 1778023317 | 25.56° C | 95% | 1012 hPa | 0 mm | 0.45 m/s, 147° | 55 W/m² | - |
| 1778023017 | 25.56° C | 96% | 1012 hPa | 0 mm | 0 m/s | 48 W/m² | - |
| 1778022717 | 25.56° C | 96% | 1012 hPa | 0 mm | 0 m/s | 38 W/m² | - |
| 1778022417 | 25.56° C | 96% | 1012 hPa | 0 mm | 0.89 m/s, 130° | 24 W/m² | - |
* Rain latest hour (hover to see other rain measurements)
** Current wind speed in m/s (hover to see current wind gust speed)